FAD3060 MDSI-MDSI

Flight info

Callsign FAD3060
Flight time N/A
Altitude 3000
Route VFR
Aircraft B06/L-SFG/C

Departure

Time 2026-04-18 16:09
Airport San Isidro Air Base (MDSI)

Arrival

Time N/A
Airport San Isidro Air Base (MDSI)
Time Latitude Longitude Altitude Speed Heading
2026-04-18 15:58 18.50232 -69.76813 119 ft 0 kts 232°
2026-04-18 16:02 18.50229 -69.76812 156 ft 6 kts 90°
2026-04-18 16:02 18.50458 -69.76518 183 ft 82 kts 48°
2026-04-18 16:02 18.51068 -69.76546 258 ft 105 kts 333°
2026-04-18 16:03 18.51226 -69.77228 335 ft 109 kts 242°
2026-04-18 16:03 18.50872 -69.77945 406 ft 109 kts 244°
2026-04-18 16:03 18.50580 -69.78723 485 ft 104 kts 254°
2026-04-18 16:03 18.50401 -69.79461 638 ft 106 kts 257°
2026-04-18 16:04 18.50163 -69.80250 611 ft 118 kts 240°
2026-04-18 16:04 18.49683 -69.80962 603 ft 121 kts 233°
2026-04-18 16:04 18.49283 -69.81741 595 ft 121 kts 245°
2026-04-18 16:04 18.48977 -69.82556 595 ft 119 kts 249°
2026-04-18 16:05 18.48693 -69.83378 594 ft 120 kts 249°
2026-04-18 16:05 18.48404 -69.84204 576 ft 120 kts 248°
2026-04-18 16:05 18.48101 -69.85034 577 ft 123 kts 248°
2026-04-18 16:05 18.47778 -69.85880 576 ft 125 kts 246°
2026-04-18 16:06 18.47447 -69.86728 575 ft 126 kts 245°
2026-04-18 16:06 18.47093 -69.87586 573 ft 129 kts 244°
2026-04-18 16:06 18.46701 -69.88432 565 ft 126 kts 243°
2026-04-18 16:06 18.46317 -69.89236 570 ft 121 kts 243°
2026-04-18 16:07 18.45956 -69.90026 569 ft 119 kts 246°
2026-04-18 16:07 18.45665 -69.90839 569 ft 118 kts 251°
2026-04-18 16:07 18.45409 -69.91663 573 ft 119 kts 251°
2026-04-18 16:07 18.45208 -69.92502 576 ft 122 kts 259°
2026-04-18 16:08 18.45151 -69.93409 575 ft 127 kts 271°
2026-04-18 16:08 18.45143 -69.94337 570 ft 125 kts 259°
2026-04-18 16:08 18.44880 -69.95197 574 ft 123 kts 246°
2026-04-18 16:08 18.44558 -69.95994 685 ft 111 kts 247°
2026-04-18 16:09 18.44336 -69.96684 735 ft 87 kts 265°
2026-04-18 16:09 18.44387 -69.97207 558 ft 59 kts 327°
2026-04-18 16:09 18.44668 -69.97376 274 ft 26 kts 354°
2026-04-18 16:09 18.44713 -69.97369 215 ft 7 kts 357°
2026-04-18 16:10 18.44711 -69.97374 193 ft 0 kts 356°
2026-04-18 16:13 18.44722 -69.97377 245 ft 15 kts
2026-04-18 16:13 18.45159 -69.97364 419 ft 96 kts
2026-04-18 16:14 18.45903 -69.97311 648 ft 111 kts 14°
2026-04-18 16:14 18.46709 -69.97144 792 ft 123 kts 19°
2026-04-18 16:14 18.47547 -69.96961 939 ft 129 kts 12°
2026-04-18 16:14 18.48436 -69.96809 1134 ft 125 kts 17°
2026-04-18 16:15 18.50044 -69.96448 1922 ft 117 kts
2026-04-18 16:15 18.50845 -69.96549 2427 ft 114 kts 358°
2026-04-18 16:15 18.51616 -69.96705 2743 ft 110 kts 354°
2026-04-18 16:16 18.52330 -69.96850 3013 ft 102 kts 356°
2026-04-18 16:16 18.53070 -69.96980 3135 ft 121 kts 357°
2026-04-18 16:16 18.53976 -69.97105 3072 ft 134 kts 357°
2026-04-18 16:16 18.54588 -69.97187 3061 ft 133 kts 357°
2026-04-18 16:17 18.55529 -69.97311 3061 ft 142 kts 358°
2026-04-18 16:17 18.56539 -69.97446 3046 ft 147 kts 356°
2026-04-18 16:17 18.57540 -69.97580 3044 ft 143 kts 358°
2026-04-18 16:17 18.58522 -69.97706 3046 ft 143 kts 357°
2026-04-18 16:18 18.59504 -69.97827 3047 ft 142 kts 358°
2026-04-18 16:18 18.60490 -69.97944 3047 ft 143 kts 358°
2026-04-18 16:18 18.61477 -69.98147 3037 ft 143 kts 349°
2026-04-18 16:18 18.62417 -69.98456 3047 ft 141 kts 345°
2026-04-18 16:19 18.63325 -69.98826 3043 ft 139 kts 341°
2026-04-18 16:19 18.64217 -69.99227 3044 ft 140 kts 341°
2026-04-18 16:19 18.65113 -69.99637 3044 ft 142 kts 340°
2026-04-18 16:19 18.66013 -70.00045 3043 ft 140 kts 341°
2026-04-18 16:20 18.66946 -70.00459 3049 ft 151 kts 341°
2026-04-18 16:20 18.67925 -70.00888 3045 ft 153 kts 341°
2026-04-18 16:20 18.68888 -70.01313 3036 ft 146 kts 341°
2026-04-18 16:20 18.69811 -70.01718 3049 ft 144 kts 341°
2026-04-18 16:21 18.70725 -70.02111 3037 ft 142 kts 342°
2026-04-18 16:21 18.71651 -70.02504 3039 ft 143 kts 342°
2026-04-18 16:21 18.72581 -70.02900 3052 ft 149 kts 342°
2026-04-18 16:21 18.73548 -70.03318 3040 ft 151 kts 341°
2026-04-18 16:22 18.74502 -70.03725 3039 ft 145 kts 341°
2026-04-18 16:22 18.75429 -70.04113 3036 ft 142 kts 342°
2026-04-18 16:22 18.76343 -70.04527 3042 ft 146 kts 338°
2026-04-18 16:22 18.77245 -70.05017 3034 ft 145 kts 335°
2026-04-18 16:23 18.78121 -70.05526 3039 ft 143 kts 332°
2026-04-18 16:23 18.78985 -70.06055 3054 ft 150 kts 331°
2026-04-18 16:23 18.80792 -70.07071 3034 ft 143 kts 334°
2026-04-18 16:24 18.81691 -70.07544 3042 ft 144 kts 335°
2026-04-18 16:24 18.82579 -70.08000 3034 ft 143 kts 335°
2026-04-18 16:24 18.83492 -70.08458 3044 ft 150 kts 336°
2026-04-18 16:24 18.84425 -70.08926 3032 ft 145 kts 336°
2026-04-18 16:25 18.85341 -70.09380 3036 ft 145 kts 336°
2026-04-18 16:25 18.86248 -70.09827 3038 ft 144 kts 337°
2026-04-18 16:25 18.87156 -70.10276 3043 ft 146 kts 336°
2026-04-18 16:25 18.88081 -70.10728 3037 ft 146 kts 336°
2026-04-18 16:26 18.89021 -70.11180 3037 ft 150 kts 337°
2026-04-18 16:26 18.89964 -70.11632 3035 ft 147 kts 336°
2026-04-18 16:26 18.90893 -70.12073 3035 ft 145 kts 337°
2026-04-18 16:26 18.91808 -70.12508 3040 ft 146 kts 337°
2026-04-18 16:27 18.92749 -70.12961 3036 ft 151 kts 337°
2026-04-18 16:27 18.93695 -70.13423 3035 ft 148 kts 336°
2026-04-18 16:27 18.94639 -70.13885 3044 ft 152 kts 336°
2026-04-18 16:27 18.95580 -70.14352 3034 ft 147 kts 336°
2026-04-18 16:28 18.96511 -70.14810 3039 ft 153 kts 336°
2026-04-18 16:28 18.97480 -70.15281 3038 ft 155 kts 336°
2026-04-18 16:28 18.98447 -70.15749 3040 ft 152 kts 336°
2026-04-18 16:28 18.99416 -70.16210 3039 ft 153 kts 336°
2026-04-18 16:29 19.00383 -70.16668 3034 ft 150 kts 337°
2026-04-18 16:29 19.00981 -70.16949 3045 ft 156 kts 338°
2026-04-18 16:29 19.01808 -70.17343 3017 ft 156 kts 336°
2026-04-18 16:30 19.02806 -70.17826 3005 ft 159 kts 337°
2026-04-18 16:30 19.03783 -70.18308 2986 ft 155 kts 337°
2026-04-18 16:30 19.04736 -70.18782 2949 ft 149 kts 336°
2026-04-18 16:30 19.05666 -70.19242 2941 ft 147 kts 338°
2026-04-18 16:31 19.06592 -70.19698 2943 ft 147 kts 338°
2026-04-18 16:31 19.07538 -70.20160 2956 ft 148 kts 337°
2026-04-18 16:31 19.08473 -70.20622 2967 ft 149 kts 336°
2026-04-18 16:31 19.09402 -70.21084 2965 ft 148 kts 336°
2026-04-18 16:32 19.10351 -70.21548 2984 ft 152 kts 337°
2026-04-18 16:32 19.11323 -70.22021 2999 ft 150 kts 337°
2026-04-18 16:32 19.12256 -70.22471 3026 ft 148 kts 337°
2026-04-18 16:32 19.13184 -70.22911 3026 ft 146 kts 337°
2026-04-18 16:33 19.14111 -70.23351 3036 ft 145 kts 338°
2026-04-18 16:33 19.15025 -70.23792 3040 ft 143 kts 338°
2026-04-18 16:33 19.15937 -70.24236 3045 ft 146 kts 337°
2026-04-18 16:33 19.16877 -70.24693 3039 ft 148 kts 337°
2026-04-18 16:34 19.17801 -70.25152 3047 ft 147 kts 337°
2026-04-18 16:34 19.18746 -70.25616 3043 ft 151 kts 336°
2026-04-18 16:34 19.19694 -70.26077 3041 ft 148 kts 337°
2026-04-18 16:34 19.20643 -70.26539 3048 ft 153 kts 336°
2026-04-18 16:35 19.21590 -70.27033 3046 ft 152 kts 333°
2026-04-18 16:35 19.22503 -70.27581 3043 ft 154 kts 331°
2026-04-18 16:35 19.23422 -70.28163 3046 ft 155 kts 330°
2026-04-18 16:35 19.24340 -70.28756 3043 ft 154 kts 329°
2026-04-18 16:36 19.25267 -70.29364 3038 ft 157 kts 329°
2026-04-18 16:36 19.25578 -70.29570 3038 ft 155 kts 329°
2026-04-18 16:36 19.25884 -70.29772 3037 ft 153 kts 329°
2026-04-18 16:37 19.26781 -70.30364 3043 ft 151 kts 330°
2026-04-18 16:37 19.27684 -70.30958 3041 ft 153 kts 330°
2026-04-18 16:37 19.28587 -70.31524 3045 ft 151 kts 332°
2026-04-18 16:37 19.29517 -70.32090 3044 ft 156 kts 332°
2026-04-18 16:38 19.30470 -70.32662 3037 ft 156 kts 332°
2026-04-18 16:38 19.31379 -70.33212 3043 ft 150 kts 332°
2026-04-18 16:38 19.32293 -70.33762 3048 ft 154 kts 332°
2026-04-18 16:38 19.33232 -70.34328 3035 ft 154 kts 332°
2026-04-18 16:39 19.34142 -70.34881 3040 ft 149 kts 332°
2026-04-18 16:39 19.35055 -70.35439 3042 ft 153 kts 332°
2026-04-18 16:39 19.35962 -70.35998 3042 ft 149 kts 332°
2026-04-18 16:39 19.36841 -70.36545 3041 ft 144 kts 332°
2026-04-18 16:40 19.37712 -70.37082 3043 ft 145 kts 332°
2026-04-18 16:40 19.38600 -70.37623 3045 ft 150 kts 331°
2026-04-18 16:40 19.39545 -70.38193 3047 ft 161 kts 331°
2026-04-18 16:40 19.40508 -70.38776 3034 ft 155 kts 332°
2026-04-18 16:41 19.42292 -70.39855 3040 ft 141 kts 333°
2026-04-18 16:41 19.43139 -70.40356 3046 ft 145 kts 333°
2026-04-18 16:41 19.44045 -70.40891 3044 ft 148 kts 333°
2026-04-18 16:42 19.44944 -70.41434 3037 ft 150 kts 332°
2026-04-18 16:42 19.45852 -70.41996 3038 ft 149 kts 331°
2026-04-18 16:42 19.46733 -70.42533 3046 ft 146 kts 332°
2026-04-18 16:42 19.47655 -70.43099 3047 ft 160 kts 332°
2026-04-18 16:43 19.48627 -70.43700 3038 ft 161 kts 331°
2026-04-18 16:43 19.49588 -70.44290 3036 ft 158 kts 332°
2026-04-18 16:43 19.50532 -70.44869 3041 ft 155 kts 331°
2026-04-18 16:43 19.51474 -70.45441 3043 ft 157 kts 332°
2026-04-18 16:44 19.52418 -70.46010 3038 ft 154 kts 332°
2026-04-18 16:44 19.53347 -70.46568 3048 ft 156 kts 332°
2026-04-18 16:44 19.54297 -70.47140 3037 ft 156 kts 333°
2026-04-18 16:44 19.55210 -70.47717 3043 ft 151 kts 332°
2026-04-18 16:45 19.56111 -70.48285 3045 ft 154 kts 332°
2026-04-18 16:45 19.57026 -70.48866 3042 ft 153 kts 332°
2026-04-18 16:45 19.57933 -70.49441 3025 ft 150 kts 332°
2026-04-18 16:45 19.58835 -70.50004 3033 ft 153 kts 332°
2026-04-18 16:46 19.59769 -70.50578 3025 ft 155 kts 331°
2026-04-18 16:46 19.60692 -70.51138 3023 ft 151 kts 331°
2026-04-18 16:46 19.61605 -70.51680 3022 ft 150 kts 333°
2026-04-18 16:46 19.62513 -70.52229 3022 ft 150 kts 331°
2026-04-18 16:47 19.63419 -70.52766 3018 ft 149 kts 332°
2026-04-18 16:47 19.64318 -70.53303 3025 ft 149 kts 332°
2026-04-18 16:47 19.65257 -70.53811 3013 ft 152 kts 340°
2026-04-18 16:47 19.66247 -70.54148 3020 ft 148 kts 347°
2026-04-18 16:48 19.67240 -70.54410 3016 ft 146 kts 349°
2026-04-18 16:48 19.68209 -70.54717 3017 ft 149 kts 344°
2026-04-18 16:48 19.69188 -70.55067 3014 ft 146 kts 343°
2026-04-18 16:48 19.70077 -70.55419 3107 ft 126 kts 338°
2026-04-18 16:49 19.70799 -70.55764 3075 ft 103 kts 337°
2026-04-18 16:49 19.71424 -70.56111 2732 ft 110 kts 334°
2026-04-18 16:49 19.72167 -70.56508 2273 ft 123 kts 345°
2026-04-18 16:49 19.72612 -70.56664 2031 ft 123 kts 351°
2026-04-18 16:50 19.73346 -70.56947 1856 ft 107 kts 341°
2026-04-18 16:50 19.74029 -70.57194 1387 ft 114 kts
2026-04-18 16:50 19.74644 -70.57158 1247 ft 59 kts 345°
2026-04-18 16:50 19.74939 -70.57193 677 ft 38 kts
2026-04-18 16:51 19.75224 -70.57326 281 ft 45 kts 327°
2026-04-18 16:51 19.75352 -70.57493 91 ft 15 kts 270°
2026-04-18 16:51 19.75349 -70.57556 54 ft 4 kts 248°
2026-04-18 16:51 19.75345 -70.57568 29 ft 0 kts 246°
2026-04-18 16:52 19.75344 -70.57567 28 ft 0 kts 248°